{"data":{"norad_id":39209,"intl_designator":"2013-037B","name":"CHUANGXIN-3 (CX-3)","alt_names":[],"object_type":"PAYLOAD","status":"ACTIVE","operator":null,"country":"PRC","launch_date":"2013-07-19","launch_site_code":"TAISC","launch_vehicle":null,"mission":null,"orbit_class":"UNKNOWN","rcs_meters":1.335,"size_class":null,"mass_kg":null,"dimensions":null,"purposes":[],"wikipedia_slug":null,"has_3d_model":false,"image_url":null,"decayed_at":null,"tle_current":{"epoch":"2026-09-18T23:17:05.890848Z","epoch_age_seconds":165805,"freshness":"FRESH","line1":"1 39209U 13037B   26261.97020707  .00000582  00000+0  94673-4 0  9993","line2":"2 39209  98.0854 268.0383 0004008 173.7684 186.3575 14.74751537706177","mean_motion":14.74751537,"eccentricity":0.0004008,"inclination_deg":98.0854,"raan_deg":268.0383,"arg_perigee_deg":173.7684,"mean_anomaly_deg":186.3575,"bstar":9.4673e-5,"rev_number":70617,"period_min":97.643566653221,"perigee_km":643.12484516222,"apogee_km":648.75534536178,"semimajor_km":7024.077095262,"source":"CELESTRAK","updated_at":"2026-09-20T09:00:13.916637Z"}}}